Dewpoint
53 53 54 53 53 54 54 54 54 54 55 55 55 55 55 56 55 56 56 56 56 56 56 56 56 56 56 56 56 56 56 54 51 49 47 49 51 56 56 64 68 68 61 61 51 53 47 47 49 52 53 55 59 59 61 61 61 60 60 57 55 54 54 55 52 51 54 53 52 53 59 59 51 53 55 57 57 58 59 60 60 60 59 59 61 61 61 63
53 54 53 53 54 54 54 54 54 55 55 55 55 55 55 56 56 56 56 56 56 55 56 56 56 56 56 56 56 56 55 53 50 49 47 48 60 60 63 63 65 69 62 52 45 51 44 46 47 50 52 53 57 57 58 58 59 60 60 56 52 55 54 57 54 53 54 51 52 54 53 55 54 55 55 55 57 56 57 58 59 59 59 60 60 60 61 62
54 54 54 54 54 54 54 54 54 54 54 55 55 55 55 56 56 55 56 56 56 56 55 56 56 56 55 55 55 56 54 50 48 46 46 62 61 62 64 66 68 71 56 47 43 48 44 45 46 48 51 52 55 55 56 54 56 56 56 55 53 56 55 63 57 55 52 52 52 53 52 53 53 53 54 54 55 57 56 55 56 57 58 59 59 59 60 61
54 53 54 54 54 54 54 54 54 55 55 55 55 55 55 55 55 55 56 56 56 56 56 55 55 55 55 55 56 55 53 49 44 42 40 62 67 64 64 64 70 70 54 44 41 44 45 43 44 46 49 50 53 54 53 52 52 59 54 50 54 56 54 59 57 55 52 55 54 56 55 54 56 54 55 56 54 58 58 56 57 58 58 58 59 59 59 61
54 54 54 54 54 54 54 54 54 55 54 55 55 55 55 55 55 55 55 56 56 56 56 55 55 55 55 55 56 54 50 43 31 34 55 73 69 67 65 66 72 60 49 43 40 40 42 41 41 43 46 48 50 52 50 51 49 55 53 52 49 54 53 62 58 55 53 55 54 54 53 50 57 57 56 55 56 55 58 57 59 59 59 59 59 59 59 60
54 54 53 53 54 54 55 54 54 54 55 55 55 55 55 55 55 55 55 55 56 56 56 55 55 55 55 56 54 52 47 26 33 31 63 72 71 67 66 67 72 51 44 38 36 36 38 40 39 39 43 46 49 49 49 49 48 44 48 49 48 53 52 65 57 63 53 54 55 54 54 51 53 56 55 55 56 57 58 59 60 59 59 58 58 59 59 60
54 54 54 54 54 54 54 55 55 55 55 55 56 56 55 55 55 55 55 55 55 56 56 55 55 56 56 57 53 49 45 38 42 48 73 72 71 68 67 69 69 46 41 36 34 34 36 38 39 39 43 45 48 49 48 48 48 46 45 47 49 53 52 55 53 53 54 53 55 54 53 50 49 51 54 53 56 57 57 59 60 60 59 59 58 59 59 59
53 54 54 54 54 55 55 55 55 55 55 55 55 55 55 55 54 55 55 55 56 56 56 56 56 56 56 52 49 46 42 37 38 38 70 73 69 67 67 62 55 43 38 35 33 32 34 35 38 40 42 44 47 49 48 45 46 44 45 45 49 53 52 51 51 51 53 53 54 53 52 48 49 51 53 52 55 57 58 59 60 60 59 59 59 59 59 59
54 54 54 54 55 54 54 54 54 55 55 55 55 55 54 54 54 55 55 55 56 56 56 56 56 57 57 53 48 40 37 39 36 36 68 62 62 62 57 54 50 42 36 33 32 31 32 32 34 38 39 43 47 46 47 44 41 44 43 44 44 52 49 50 51 51 53 51 54 52 51 50 50 53 51 55 56 55 57 59 59 59 58 58 59 59 59 59
54 54 54 54 54 55 55 55 55 55 55 55 55 54 54 55 55 55 55 55 55 55 56 57 57 56 55 51 45 37 35 39 40 39 57 57 60 55 51 48 46 39 32 31 30 29 29 32 33 36 38 41 45 46 46 43 39 42 43 43 43 46 50 50 49 50 50 50 51 52 52 52 53 51 49 55 55 56 57 58 59 58 58 58 59 59 59 59
53 54 54 54 54 54 54 54 55 55 55 55 54 54 54 55 54 54 54 54 55 56 57 58 58 56 52 50 42 32 36 36 35 39 46 56 55 50 47 44 42 36 33 31 29 29 29 32 34 34 37 37 42 44 45 43 41 39 39 42 42 42 42 49 49 48 49 50 50 46 44 44 49 56 49 53 55 57 58 58 58 58 58 59 59 59 60 60
54 54 54 54 54 54 54 54 55 55 54 54 54 54 54 54 54 54 54 54 55 56 57 58 57 55 53 48 42 37 37 35 36 40 42 51 50 46 45 41 41 37 34 29 29 29 29 31 35 37 36 39 37 41 42 43 40 38 36 35 39 41 41 42 44 47 48 48 46 45 44 44 47 46 50 51 54 57 58 58 58 58 59 59 59 59 61 60
53 54 54 54 54 54 54 55 54 54 54 53 54 54 53 53 53 54 54 54 55 56 57 58 57 55 51 45 46 44 42 41 38 37 35 43 44 44 41 37 38 37 33 29 28 28 27 29 36 40 39 39 40 39 41 41 39 37 35 34 35 39 40 43 44 43 43 49 47 44 42 44 44 46 50 49 54 56 56 56 58 58 59 59 60 59 60 60
53 53 53 53 54 54 54 54 55 54 53 53 53 53 53 53 53 54 54 55 56 57 58 58 56 54 52 47 44 41 42 42 40 39 37 37 39 38 35 32 33 33 30 28 29 29 28 30 36 40 39 37 38 42 40 38 35 33 34 34 34 39 39 42 44 43 41 45 48 47 43 41 43 45 49 50 54 56 56 56 56 57 58 58 59 59 59 59
53 53 53 54 54 54 54 54 53 53 53 53 52 52 53 51 53 55 55 56 57 59 59 58 56 52 50 47 48 48 62 54 50 45 40 36 34 35 34 31 32 32 29 28 29 33 35 35 37 36 34 35 35 36 37 36 33 32 36 33 34 37 40 40 43 43 41 41 46 46 43 44 44 46 48 51 53 54 54 55 56 58 57 58 58 59 59 60
53 53 53 53 53 54 54 53 53 53 53 52 51 52 52 52 55 56 56 56 57 59 57 54 53 53 49 46 41 48 51 48 45 44 42 40 32 31 33 32 32 35 34 31 32 33 36 37 34 33 31 31 30 33 34 34 33 32 35 36 35 37 38 38 39 40 42 41 43 43 42 42 44 42 48 52 52 53 54 54 55 57 57 57 59 59 59 59
53 53 53 53 54 54 53 53 53 53 52 51 51 51 52 54 57 57 56 60 59 56 54 51 51 53 44 44 47 39 36 44 44 38 38 38 31 31 28 30 32 33 34 33 33 33 34 35 35 32 30 27 28 30 32 32 32 32 33 34 36 36 37 37 38 39 40 41 40 42 41 40 42 42 48 49 50 51 51 52 55 56 57 57 59 58 59 59
53 53 53 54 54 54 53 52 53 52 51 50 50 50 49 53 57 56 56 57 55 54 52 52 50 48 46 49 46 41 36 35 40 36 35 34 30 27 30 27 33 33 32 31 33 31 33 33 33 29 27 26 26 28 29 29 30 32 33 33 34 35 35 36 36 36 37 39 38 42 42 40 39 39 44 47 49 49 50 52 52 53 56 57 58 59 59 59
53 53 53 53 53 53 53 53 52 51 50 51 51 51 50 58 52 46 46 53 52 50 49 49 50 38 21 37 39 38 36 38 36 36 32 29 28 26 28 36 35 33 29 28 30 31 32 33 33 30 26 25 24 26 28 29 31 32 33 32 33 32 33 34 35 36 34 37 37 40 40 39 38 38 42 43 48 48 51 52 52 52 54 56 56 58 59 59
53 54 53 53 52 53 53 52 51 50 49 48 46 44 41 18 21 44 46 22 18 18 15 15 28 40 33 30 31 34 33 30 31 34 32 26 27 25 24 32 34 31 28 27 29 30 32 31 31 29 28 26 25 26 27 29 29 31 33 33 32 32 32 35 35 35 33 36 36 38 39 39 38 39 45 46 47 49 49 50 50 51 52 54 55 57 58 59
54 53 53 52 52 52 52 51 51 50 49 47 46 41 15 14 13 13 17 19 20 21 22 23 23 22 16 17 21 23 23 24 25 29 32 28 24 21 19 25 32 28 26 27 28 31 31 31 31 32 30 28 26 27 27 28 28 28 30 31 30 31 31 32 33 34 32 32 36 37 37 39 38 38 38 45 45 47 49 49 50 51 52 52 53 56 58 59
53 53 53 52 52 51 51 51 50 49 49 48 46 23 16 15 15 17 18 18 21 22 22 23 24 24 25 24 22 23 22 22 23 24 29 26 19 16 17 25 32 29 27 28 30 31 30 29 31 33 32 30 28 27 27 27 28 29 29 30 30 28 27 29 29 29 32 32 36 36 36 37 39 38 38 39 44 47 47 50 51 53 52 52 53 55 57 59
53 53 52 52 51 51 50 50 49 49 49 43 36 20 19 18 18 20 22 23 23 24 24 24 22 21 21 23 22 22 20 20 22 23 25 25 16 14 24 29 33 32 30 31 31 30 29 29 30 32 32 31 29 28 26 26 27 29 31 31 30 28 26 23 26 27 32 32 33 36 35 37 39 39 38 38 39 48 47 48 52 55 53 53 53 55 57 59
53 53 52 52 51 50 51 49 49 42 37 35 36 22 22 21 20 22 22 21 21 23 24 24 25 25 24 22 22 21 18 19 23 22 26 21 15 16 23 34 35 34 33 33 33 30 29 30 30 31 34 33 30 29 28 27 27 29 31 32 30 27 25 25 24 25 31 32 33 34 36 38 37 39 39 39 41 44 48 48 50 53 55 55 54 56 57 58
53 53 53 51 50 50 48 48 34 30 36 38 23 24 24 23 22 24 23 23 25 25 28 26 25 24 25 27 23 13 16 15 21 24 26 19 15 20 23 34 36 34 33 32 32 30 29 32 33 32 34 35 32 29 28 28 27 28 29 30 29 27 25 24 24 21 27 31 32 32 34 36 38 37 38 40 41 41 49 48 48 51 55 56 54 56 58 59
53 52 53 51 51 50 48 39 27 37 38 33 26 25 25 22 22 26 22 23 24 26 28 26 29 25 26 22 25 18 12 13 18 22 26 20 20 19 26 28 33 31 31 31 29 29 29 33 33 32 32 33 32 29 28 27 26 26 26 28 27 27 27 25 23 19 29 30 32 32 31 34 38 36 36 39 40 40 44 48 49 51 54 55 54 54 57 58
52 52 51 51 50 49 39 29 36 40 35 31 27 26 24 22 31 24 22 24 25 23 26 28 26 20 24 21 22 15 4 7 19 22 23 28 16 20 24 26 31 32 32 32 32 29 32 33 32 29 29 30 31 29 29 27 26 25 27 25 25 25 27 28 26 20 27 31 31 31 31 34 34 35 37 37 37 37 41 47 49 52 53 54 53 54 56 58
52 52 50 50 49 49 44 43 43 39 35 32 26 24 24 26 28 23 26 16 13 14 19 20 22 21 20 21 22 10 5 16 17 20 23 26 20 18 21 24 28 31 32 31 29 32 33 31 29 26 23 26 28 29 29 28 26 25 27 26 25 26 27 27 26 22 20 28 31 30 31 33 35 38 36 37 36 38 39 41 50 52 53 54 53 55 56 58
51 51 50 50 49 48 48 46 44 39 38 26 25 24 23 25 23 24 24 14 8 16 22 18 23 20 18 20 18 12 6 16 15 20 24 26 22 19 19 22 25 31 32 30 28 27 28 28 25 22 19 17 24 27 27 26 25 25 25 28 29 27 26 25 23 20 21 27 28 32 30 30 33 37 37 36 35 35 37 39 46 50 53 54 54 55 56 57
52 51 50 49 47 43 41 41 39 34 30 25 24 24 24 23 25 23 22 21 13 11 18 18 17 16 17 16 20 11 7 5 11 21 23 24 24 21 21 24 23 24 29 30 28 28 26 29 27 19 16 17 20 21 22 22 22 24 24 24 25 21 22 24 21 24 26 19 24 25 29 30 30 34 34 36 34 36 36 39 43 52 52 53 54 54 55 55
51 49 49 49 45 42 43 40 31 32 32 26 24 22 21 25 22 18 12 14 11 14 17 16 15 16 15 15 15 20 10 7 6 7 21 23 24 21 21 21 23 21 20 26 27 27 26 24 23 21 20 18 20 22 22 21 21 21 23 23 21 20 24 27 22 21 18 17 26 20 17 27 28 33 33 34 36 35 36 36 37 52 53 54 54 54 55 56
49 48 49 48 47 48 43 37 35 37 32 23 22 21 20 15 21 17 11 17 12 15 14 13 14 13 14 15 15 17 21 13 9 9 13 20 22 21 21 19 20 18 18 18 21 24 23 23 22 22 28 19 19 20 22 22 21 21 22 22 18 22 18 16 21 16 15 15 21 15 15 15 18 25 32 33 34 36 36 36 36 52 53 54 54 55 55 56
48 48 48 49 49 47 46 44 44 42 27 21 24 21 15 18 13 14 14 15 14 16 14 13 11 13 13 13 14 17 18 20 12 11 11 19 20 22 21 20 19 19 17 17 15 19 20 21 21 20 21 24 19 17 18 19 19 20 20 20 17 16 15 14 16 18 17 15 13 12 15 14 23 27 25 26 30 35 35 35 35 52 53 53 53 54 54 56
48 48 47 48 47 47 46 47 42 38 22 26 24 19 16 17 14 27 13 14 16 17 14 11 12 12 12 12 14 13 15 16 17 15 14 14 20 21 21 21 20 17 17 17 13 13 15 16 18 19 18 21 20 18 18 18 17 19 19 16 17 16 15 14 13 10 13 20 11 9 10 16 14 20 29 24 24 25 34 35 35 51 52 52 52 53 54 55
48 47 47 46 45 45 47 46 45 25 24 25 22 16 13 14 13 13 13 15 16 15 13 12 12 11 10 12 14 14 14 14 16 23 20 16 15 19 21 21 21 19 16 14 14 14 12 17 19 20 20 20 19 19 19 18 15 16 16 15 18 15 22 16 18 17 21 22 22 11 9 24 20 29 23 24 21 22 26 34 36 45 50 48 48 53 53 54
47 44 45 44 42 40 34 26 32 26 27 25 22 23 18 19 15 13 13 16 15 13 12 13 13 9 11 12 14 13 14 16 19 24 22 20 16 17 21 21 21 20 19 14 18 12 15 15 20 20 21 20 19 20 18 19 15 14 13 12 13 17 14 22 32 18 25 24 17 29 31 19 16 16 19 22 19 20 23 22 30 39 47 47 47 52 54 54
45 45 43 43 43 38 33 33 24 29 29 26 21 20 21 18 15 12 18 13 11 12 12 12 12 13 13 13 14 13 15 18 20 21 22 24 22 17 20 22 23 22 22 22 16 16 17 17 19 19 19 20 20 20 18 19 19 12 11 13 17 20 16 17 19 26 19 15 20 14 14 17 15 16 15 15 18 18 20 21 19 35 43 44 49 49 53 53
46 45 46 45 45 44 30 35 30 31 27 24 22 22 17 11 11 10 14 13 10 12 12 11 12 15 14 15 14 17 18 18 16 23 21 22 22 25 27 29 27 29 29 25 22 19 17 16 18 19 19 19 20 20 18 19 20 15 12 17 14 14 12 19 25 20 17 16 17 15 12 15 18 21 14 13 12 16 21 22 19 29 40 42 50 51 52 52
45 42 39 29 27 23 23 40 25 26 25 23 21 20 16 12 11 13 14 13 12 12 12 13 13 14 15 15 16 18 19 20 20 21 21 22 22 25 27 31 30 31 32 31 28 22 20 16 18 19 18 19 19 19 18 18 19 20 17 15 15 15 14 20 15 22 21 25 17 18 13 13 19 17 14 12 13 14 22 27 22 22 41 42 49 50 51 50
41 40 39 30 26 35 37 25 22 25 24 21 17 15 10 8 8 12 14 10 11 12 13 13 14 14 15 14 16 17 21 21 24 22 21 22 21 24 28 31 29 30 32 31 29 27 20 20 18 20 18 18 17 19 19 18 17 17 17 14 13 15 16 18 22 13 25 25 24 21 20 25 31 25 16 14 14 17 21 22 32 26 42 42 46 46 50 50
43 38 38 35 35 36 27 21 19 21 20 18 12 14 11 12 13 11 13 13 12 13 13 12 13 13 13 14 14 18 20 22 22 22 21 19 21 28 30 31 32 29 32 31 29 29 23 20 19 21 19 16 16 19 20 19 18 17 17 13 10 9 12 9 16 12 12 19 20 25 22 33 22 18 23 17 18 16 22 23 24 33 37 44 46 46 48 51
38 32 32 36 38 39 24 18 16 20 16 13 12 13 15 25 13 13 13 13 15 13 14 14 14 13 16 15 16 18 20 20 22 21 21 25 27 29 30 33 29 32 30 29 29 35 37 32 21 20 20 17 16 18 21 20 19 18 17 14 10 9 14 14 17 16 13 12 13 25 23 29 39 31 30 21 18 18 22 25 28 27 27 41 46 46 45 50
36 36 39 40 40 36 25 21 23 23 16 16 17 13 17 16 9 13 14 16 15 16 15 17 18 20 16 18 18 18 18 16 23 22 26 28 33 31 32 30 29 30 30 29 31 36 48 31 27 22 23 23 21 19 21 21 20 19 17 15 12 9 9 16 21 25 15 18 13 18 27 30 35 34 35 25 24 22 24 22 29 26 25 42 45 46 45 47
38 38 38 39 34 31 24 18 20 17 17 15 17 18 20 16 14 12 15 17 16 16 20 20 19 19 17 17 18 18 18 20 25 26 28 34 33 33 33 31 32 29 29 29 31 35 35 32 34 26 25 24 25 18 20 21 21 20 17 16 14 13 11 13 18 30 19 16 13 18 18 25 36 39 27 26 23 22 22 22 30 23 29 43 45 46 46 47
40 36 35 35 37 33 27 24 22 17 16 16 16 16 18 19 18 18 19 19 17 20 21 21 21 20 17 19 21 22 22 27 31 32 33 34 34 35 32 33 31 29 28 32 44 36 34 32 33 33 24 22 23 23 20 20 20 20 19 15 14 12 12 13 13 29 18 33 23 19 22 28 34 39 32 28 29 30 21 21 24 28 30 39 46 46 47 47
33 33 34 33 36 34 31 34 31 30 21 20 18 16 19 20 22 21 19 18 18 20 21 23 22 21 20 20 21 21 21 30 33 34 34 33 34 34 34 33 30 27 36 40 41 33 29 31 34 36 35 35 36 42 33 25 21 19 19 17 13 12 13 14 22 29 19 36 24 31 33 32 31 25 21 29 30 31 32 46 48 50 53 52 44 49 47 47
35 31 31 33 37 33 34 34 33 33 31 30 23 21 22 23 24 22 23 19 22 20 21 25 24 23 22 22 24 22 23 26 30 32 32 33 34 34 34 32 29 33 39 38 38 31 32 31 30 36 39 37 34 34 31 24 19 19 18 17 14 12 12 16 14 20 36 31 22 35 42 28 28 33 29 30 28 37 41 45 47 50 52 52 43 49 56 46
32 32 33 40 35 33 34 34 35 33 33 29 24 25 23 23 22 22 21 19 21 23 22 24 25 23 24 25 24 23 26 27 29 31 33 34 34 33 33 33 30 32 36 30 32 28 26 28 30 31 30 32 31 30 29 29 18 18 18 17 15 11 11 12 21 29 32 30 29 37 40 35 32 28 29 40 33 32 41 42 45 47 49 51 51 47 46 51
36 35 36 38 35 35 36 36 36 35 30 26 27 25 24 24 25 24 22 22 23 22 28 24 24 23 24 25 25 25 28 24 26 31 32 33 32 33 34 33 31 33 32 31 30 30 26 27 30 27 29 31 31 29 29 29 29 21 17 17 17 12 11 11 17 23 28 35 39 44 36 36 23 24 30 34 36 36 38 40 43 47 47 50 49 48 52 55
38 38 37 40 38 36 37 37 34 33 31 32 26 23 25 25 25 25 25 25 23 26 28 25 24 25 24 24 27 25 24 26 29 29 31 31 32 34 33 32 35 34 31 31 30 30 28 26 30 24 30 34 35 33 33 29 27 30 27 18 17 16 11 11 11 16 30 24 21 39 39 39 34 29 36 38 35 35 35 33 38 44 46 45 45 46 52 56
47 46 43 38 34 35 37 36 35 34 32 29 25 25 24 22 22 23 22 26 26 26 26 25 25 26 24 24 25 25 26 25 27 27 28 28 30 31 33 33 33 30 30 30 30 30 28 23 22 26 30 37 36 34 30 29 26 27 30 32 29 18 12 11 12 14 25 32 29 38 37 31 27 36 39 35 36 37 36 35 34 38 42 46 44 44 48 54
48 49 45 42 34 37 35 36 36 35 31 30 30 30 30 28 23 25 29 31 28 29 27 26 26 26 26 26 26 25 24 24 23 23 24 25 28 31 31 32 31 30 29 30 31 30 28 24 22 24 26 31 38 40 35 28 28 28 28 28 33 29 22 11 12 19 22 28 28 34 33 36 34 37 33 37 37 38 40 41 43 43 43 39 40 46 48 51